Zeit;wasserstand;wasserstand_status;abfluss;abfluss_status
1984-11-01 00:00:00;554.0;0;0.5858;0
1984-11-02 00:00:00;559.0;0;0.6735;0
1984-11-03 00:00:00;550.0;0;0.4092;0
1984-11-04 00:00:00;547.0;0;0.3258;0
1984-11-05 00:00:00;553.0;0;0.5007;0
1984-11-06 00:00:00;555.0;0;0.5539;0
1984-11-07 00:00:00;555.0;0;0.5355;0
1984-11-08 00:00:00;555.0;0;0.5423;0
1984-11-09 00:00:00;555.0;0;0.5289;0
1984-11-10 00:00:00;557.0;0;0.6208;0
1984-11-11 00:00:00;552.0;0;0.4479;0
1984-11-12 00:00:00;552.0;0;0.4598;0
1984-11-13 00:00:00;552.0;0;0.4549;0
1984-11-14 00:00:00;552.0;0;0.4637;0
1984-11-15 00:00:00;556.0;0;0.5845;0
1984-11-16 00:00:00;571.0;0;1.4628;0
1984-11-17 00:00:00;557.0;0;0.7548;0
1984-11-18 00:00:00;544.0;0;0.2836;0
1984-11-19 00:00:00;551.0;0;0.4612;0
1984-11-20 00:00:00;549.0;0;0.4089;0
1984-11-21 00:00:00;550.0;0;0.4202;0
1984-11-22 00:00:00;558.0;0;0.7256;0
1984-11-23 00:00:00;568.0;0;1.271;0
1984-11-24 00:00:00;577.0;0;2.1149;0
1984-11-25 00:00:00;569.0;0;1.4193;0
1984-11-26 00:00:00;560.0;0;0.8392;0
1984-11-27 00:00:00;557.0;0;0.6811;0
1984-11-28 00:00:00;555.0;0;0.6226;0
1984-11-29 00:00:00;555.0;0;0.6255;0
1984-11-30 00:00:00;551.0;0;0.4972;0
1984-12-01 00:00:00;548.0;0;0.4092;0
1984-12-02 00:00:00;550.0;0;0.481;0
1984-12-03 00:00:00;554.0;0;0.6286;0
1984-12-04 00:00:00;550.0;0;0.4911;0
1984-12-05 00:00:00;550.0;0;0.4961;0
1984-12-06 00:00:00;551.0;0;0.5148;0
1984-12-07 00:00:00;550.0;0;0.4977;0
1984-12-08 00:00:00;550.0;0;0.4928;0
1984-12-09 00:00:00;550.0;0;0.5023;0
1984-12-10 00:00:00;551.0;0;0.5355;0
1984-12-11 00:00:00;549.0;0;0.4662;0
1984-12-12 00:00:00;547.0;0;0.4213;0
1984-12-13 00:00:00;547.0;0;0.4242;0
1984-12-14 00:00:00;549.0;0;0.4777;0
1984-12-15 00:00:00;549.0;0;0.5101;0
1984-12-16 00:00:00;548.0;0;0.4803;0
1984-12-17 00:00:00;548.0;0;0.4797;0
1984-12-18 00:00:00;549.0;0;0.5268;0
1984-12-19 00:00:00;550.0;0;0.5599;0
1984-12-20 00:00:00;554.0;0;0.7424;0
1984-12-21 00:00:00;562.0;0;1.1804;0
1984-12-22 00:00:00;567.0;0;1.6331;0
1984-12-23 00:00:00;556.0;0;0.8288;0
1984-12-24 00:00:00;555.0;0;0.7624;0
1984-12-25 00:00:00;554.0;0;0.7435;0
1984-12-26 00:00:00;552.0;0;0.6801;0
1984-12-27 00:00:00;551.0;0;0.6308;0
1984-12-28 00:00:00;550.0;0;0.6041;0
1984-12-29 00:00:00;548.0;0;0.5317;0
1984-12-30 00:00:00;548.0;0;0.5195;0
1984-12-31 00:00:00;550.0;0;0.629;0
1985-01-01 00:00:00;553.0;0;0.7337;0
1985-01-02 00:00:00;549.0;0;0.6;0
1985-01-03 00:00:00;551.0;0;0.6984;0
1985-01-04 00:00:00;568.0;0;1.8875;0
1985-01-05 00:00:00;553.0;0;0.8189;0
1985-01-06 00:00:00;549.0;0;0.587;0
1985-01-07 00:00:00;549.0;0;0.6054;0
1985-01-08 00:00:00;549.0;0;0.5936;0
1985-01-09 00:00:00;548.0;0;0.5752;0
1985-01-10 00:00:00;544.0;0;0.4469;0
1985-01-11 00:00:00;545.0;0;0.4878;0
1985-01-12 00:00:00;549.0;0;0.6101;0
1985-01-13 00:00:00;548.0;0;0.591;0
1985-01-14 00:00:00;551.0;0;0.7604;0
1985-01-15 00:00:00;549.0;0;0.6579;0
1985-01-16 00:00:00;548.0;0;0.5933;0
1985-01-17 00:00:00;548.0;0;0.5923;0
1985-01-18 00:00:00;547.0;0;0.572;0
1985-01-19 00:00:00;545.0;0;0.4961;0
1985-01-20 00:00:00;543.0;0;0.4401;0
1985-01-21 00:00:00;546.0;0;0.54;0
1985-01-22 00:00:00;556.0;0;1.0504;0
1985-01-23 00:00:00;559.0;0;1.2515;0
1985-01-24 00:00:00;553.0;0;0.8728;0
1985-01-25 00:00:00;553.0;0;0.8609;0
1985-01-26 00:00:00;546.0;0;0.5525;0
1985-01-27 00:00:00;545.0;0;0.5249;0
1985-01-28 00:00:00;545.0;0;0.5403;0
1985-01-29 00:00:00;550.0;0;0.7753;0
1985-01-30 00:00:00;568.0;0;2.1518;0
1985-01-31 00:00:00;567.0;0;2.0155;0
1985-02-01 00:00:00;561.0;0;1.4851;0
1985-02-02 00:00:00;553.0;0;0.9033;0
1985-02-03 00:00:00;549.0;0;0.6957;0
1985-02-04 00:00:00;544.0;0;0.5232;0
1985-02-05 00:00:00;550.0;0;0.7356;0
1985-02-06 00:00:00;547.0;0;0.6107;0
1985-02-07 00:00:00;543.0;0;0.4913;0
1985-02-08 00:00:00;537.0;0;0.3281;0
1985-02-09 00:00:00;546.0;0;0.5839;0
1985-02-10 00:00:00;540.0;0;0.4239;0
1985-02-11 00:00:00;534.0;0;0.2547;0
1985-02-12 00:00:00;542.0;0;0.4261;0
1985-02-13 00:00:00;542.0;0;0.4239;0
1985-02-14 00:00:00;542.0;0;0.4563;0
1985-02-15 00:00:00;539.0;0;0.365;0
1985-02-16 00:00:00;539.0;0;0.3537;0
1985-02-17 00:00:00;539.0;0;0.3533;0
1985-02-18 00:00:00;539.0;0;0.3523;0
1985-02-19 00:00:00;539.0;0;0.3512;0
1985-02-20 00:00:00;539.0;0;0.3512;0
1985-02-21 00:00:00;539.0;0;0.3501;0
1985-02-22 00:00:00;540.0;0;0.3607;0
1985-02-23 00:00:00;541.0;0;0.3858;0
1985-02-24 00:00:00;542.0;0;0.4296;0
1985-02-25 00:00:00;541.0;0;0.389;0
1985-02-26 00:00:00;540.0;0;0.3812;0
1985-02-27 00:00:00;540.0;0;0.3689;0
1985-02-28 00:00:00;540.0;0;0.3677;0
1985-03-01 00:00:00;541.0;0;0.3821;0
1985-03-02 00:00:00;542.0;0;0.4184;0
1985-03-03 00:00:00;542.0;0;0.4071;0
1985-03-04 00:00:00;543.0;0;0.4383;0
1985-03-05 00:00:00;545.0;0;0.4947;0
1985-03-06 00:00:00;545.0;0;0.5146;0
1985-03-07 00:00:00;544.0;0;0.468;0
1985-03-08 00:00:00;544.0;0;0.4523;0
1985-03-09 00:00:00;543.0;0;0.4316;0
1985-03-10 00:00:00;544.0;0;0.4436;0
1985-03-11 00:00:00;543.0;0;0.4332;0
1985-03-12 00:00:00;542.0;0;0.3989;0
1985-03-13 00:00:00;543.0;0;0.4165;0
1985-03-14 00:00:00;544.0;0;0.4284;0
1985-03-15 00:00:00;545.0;0;0.4508;0
1985-03-16 00:00:00;545.0;0;0.4675;0
1985-03-17 00:00:00;545.0;0;0.457;0
1985-03-18 00:00:00;544.0;0;0.4085;0
1985-03-19 00:00:00;542.0;0;0.3642;0
1985-03-20 00:00:00;544.0;0;0.4063;0
1985-03-21 00:00:00;549.0;0;0.5352;0
1985-03-22 00:00:00;551.0;0;0.5849;0
1985-03-23 00:00:00;550.0;0;0.5467;0
1985-03-24 00:00:00;547.0;0;0.4462;0
1985-03-25 00:00:00;549.0;0;0.4985;0
1985-03-26 00:00:00;555.0;0;0.6989;0
1985-03-27 00:00:00;559.0;0;0.8759;0
1985-03-28 00:00:00;557.0;0;0.7457;0
1985-03-29 00:00:00;555.0;0;0.683;0
1985-03-30 00:00:00;561.0;0;0.9753;0
1985-03-31 00:00:00;571.0;0;1.7449;0
1985-04-01 00:00:00;562.0;0;1.3082;0
1985-04-02 00:00:00;562.0;0;0.9724;0
1985-04-03 00:00:00;561.0;0;0.891;0
1985-04-04 00:00:00;559.0;0;0.813;0
1985-04-05 00:00:00;546.0;0;0.4213;0
1985-04-06 00:00:00;541.0;0;0.268;0
1985-04-07 00:00:00;551.0;0;0.4846;0
1985-04-08 00:00:00;554.0;0;0.5851;0
1985-04-09 00:00:00;554.0;0;0.5945;0
1985-04-10 00:00:00;553.0;0;0.5643;0
1985-04-11 00:00:00;549.0;0;0.4299;0
1985-04-12 00:00:00;549.0;0;0.4205;0
1985-04-13 00:00:00;550.0;0;0.454;0
1985-04-14 00:00:00;549.0;0;0.432;0
1985-04-15 00:00:00;550.0;0;0.4597;0
1985-04-16 00:00:00;550.0;0;0.4501;0
1985-04-17 00:00:00;549.0;0;0.4219;0
1985-04-18 00:00:00;551.0;0;0.4788;0
1985-04-19 00:00:00;546.0;0;0.3509;0
1985-04-20 00:00:00;551.0;0;0.4997;0
1985-04-21 00:00:00;556.0;0;0.6552;0
1985-04-22 00:00:00;555.0;0;0.6016;0
1985-04-23 00:00:00;558.0;0;0.7852;0
1985-04-24 00:00:00;549.0;0;0.4166;0
1985-04-25 00:00:00;551.0;0;0.4738;0
1985-04-26 00:00:00;555.0;0;0.6165;0
1985-04-27 00:00:00;558.0;0;0.7251;0
1985-04-28 00:00:00;557.0;0;0.6848;0
1985-04-29 00:00:00;556.0;0;0.6445;0
1985-04-30 00:00:00;555.0;0;0.6008;0
1985-05-01 00:00:00;555.0;0;0.5858;0
1985-05-02 00:00:00;553.0;0;0.5399;0
1985-05-03 00:00:00;551.0;0;0.4475;0
1985-05-04 00:00:00;550.0;0;0.4433;0
1985-05-05 00:00:00;553.0;0;0.5143;0
1985-05-06 00:00:00;553.0;0;0.5199;0
1985-05-07 00:00:00;552.0;0;0.4794;0
1985-05-08 00:00:00;550.0;0;0.4163;0
1985-05-09 00:00:00;550.0;0;0.4118;0
1985-05-10 00:00:00;553.0;0;0.4816;0
1985-05-11 00:00:00;551.0;0;0.4294;0
1985-05-12 00:00:00;551.0;0;0.4351;0
1985-05-13 00:00:00;552.0;0;0.4523;0
1985-05-14 00:00:00;551.0;0;0.4109;0
1985-05-15 00:00:00;550.0;0;0.3839;0
1985-05-16 00:00:00;553.0;0;0.4745;0
1985-05-17 00:00:00;553.0;0;0.4587;0
1985-05-18 00:00:00;553.0;0;0.4436;0
1985-05-19 00:00:00;552.0;0;0.4214;0
1985-05-20 00:00:00;551.0;0;0.37;0
1985-05-21 00:00:00;544.0;0;0.235;0
1985-05-22 00:00:00;548.0;0;0.3018;0
1985-05-23 00:00:00;551.0;0;0.3661;0
1985-05-24 00:00:00;550.0;0;0.338;0
1985-05-25 00:00:00;550.0;0;0.338;0
1985-05-26 00:00:00;550.0;0;0.3263;0
1985-05-27 00:00:00;550.0;0;0.3169;0
1985-05-28 00:00:00;548.0;0;0.2787;0
1985-05-29 00:00:00;550.0;0;0.3172;0
1985-05-30 00:00:00;551.0;0;0.334;0
1985-05-31 00:00:00;551.0;0;0.318;0
1985-06-01 00:00:00;549.0;0;0.2813;0
1985-06-02 00:00:00;550.0;0;0.2893;0
1985-06-03 00:00:00;551.0;0;0.3085;0
1985-06-04 00:00:00;552.0;0;0.3263;0
1985-06-05 00:00:00;551.0;0;0.3118;0
1985-06-06 00:00:00;554.0;0;0.3719;0
1985-06-07 00:00:00;554.0;0;0.3756;0
1985-06-08 00:00:00;551.0;0;0.3079;0
1985-06-09 00:00:00;553.0;0;0.3505;0
1985-06-10 00:00:00;553.0;0;0.3425;0
1985-06-11 00:00:00;554.0;0;0.3772;0
1985-06-12 00:00:00;560.0;0;0.5368;0
1985-06-13 00:00:00;556.0;0;0.4381;0
1985-06-14 00:00:00;556.0;0;0.4143;0
1985-06-15 00:00:00;556.0;0;0.4329;0
1985-06-16 00:00:00;556.0;0;0.4281;0
1985-06-17 00:00:00;553.0;0;0.3659;0
1985-06-18 00:00:00;552.0;0;0.3373;0
1985-06-19 00:00:00;552.0;0;0.3399;0
1985-06-20 00:00:00;552.0;0;0.3337;0
1985-06-21 00:00:00;551.0;0;0.3214;0
1985-06-22 00:00:00;552.0;0;0.3538;0
1985-06-23 00:00:00;553.0;0;0.3654;0
1985-06-24 00:00:00;558.0;0;0.4988;0
1985-06-25 00:00:00;564.0;0;0.7397;0
1985-06-26 00:00:00;559.0;0;0.5464;0
1985-06-27 00:00:00;557.0;0;0.4769;0
1985-06-28 00:00:00;556.0;0;0.4598;0
1985-06-29 00:00:00;558.0;0;0.509;0
1985-06-30 00:00:00;557.0;0;0.4772;0
1985-07-01 00:00:00;554.0;0;0.403;0
1985-07-02 00:00:00;553.0;0;0.3689;0
1985-07-03 00:00:00;553.0;0;0.3672;0
1985-07-04 00:00:00;551.0;0;0.3217;0
1985-07-05 00:00:00;551.0;0;0.3332;0
1985-07-06 00:00:00;552.0;0;0.3458;0
1985-07-07 00:00:00;554.0;0;0.4006;0
1985-07-08 00:00:00;556.0;0;0.4547;0
1985-07-09 00:00:00;556.0;0;0.4334;0
1985-07-10 00:00:00;555.0;0;0.4248;0
1985-07-11 00:00:00;553.0;0;0.3674;0
1985-07-12 00:00:00;554.0;0;0.3793;0
1985-07-13 00:00:00;552.0;0;0.3417;0
1985-07-14 00:00:00;549.0;0;0.2866;0
1985-07-15 00:00:00;557.0;0;0.4946;0
1985-07-16 00:00:00;557.0;0;0.4639;0
1985-07-17 00:00:00;557.0;0;0.4706;0
1985-07-18 00:00:00;556.0;0;0.4206;0
1985-07-19 00:00:00;555.0;0;0.4142;0
1985-07-20 00:00:00;556.0;0;0.4401;0
1985-07-21 00:00:00;559.0;0;0.5165;0
1985-07-22 00:00:00;559.0;0;0.5507;0
1985-07-23 00:00:00;563.0;0;0.6526;0
1985-07-24 00:00:00;560.0;0;0.5435;0
1985-07-25 00:00:00;558.0;0;0.475;0
1985-07-26 00:00:00;554.0;0;0.3774;0
1985-07-27 00:00:00;553.0;0;0.3615;0
1985-07-28 00:00:00;553.0;0;0.3561;0
1985-07-29 00:00:00;558.0;0;0.5072;0
1985-07-30 00:00:00;565.0;0;0.7311;0
1985-07-31 00:00:00;560.0;0;0.5526;0
1985-08-01 00:00:00;556.0;0;0.4271;0
1985-08-02 00:00:00;556.0;0;0.4411;0
1985-08-03 00:00:00;560.0;0;0.5517;0
1985-08-04 00:00:00;558.0;0;0.5168;0
1985-08-05 00:00:00;564.0;0;0.7084;0
1985-08-06 00:00:00;562.0;0;0.621;0
1985-08-07 00:00:00;558.0;0;0.5257;0
1985-08-08 00:00:00;557.0;0;0.4929;0
1985-08-09 00:00:00;555.0;0;0.4407;0
1985-08-10 00:00:00;560.0;0;0.6016;0
1985-08-11 00:00:00;563.0;0;0.7522;0
1985-08-12 00:00:00;559.0;0;0.5799;0
1985-08-13 00:00:00;558.0;0;0.5705;0
1985-08-14 00:00:00;557.0;0;0.5398;0
1985-08-15 00:00:00;565.0;0;0.8111;0
1985-08-16 00:00:00;559.0;0;0.5844;0
1985-08-17 00:00:00;560.0;0;0.617;0
1985-08-18 00:00:00;557.0;0;0.534;0
1985-08-19 00:00:00;557.0;0;0.5216;0
1985-08-20 00:00:00;557.0;0;0.514;0
1985-08-21 00:00:00;558.0;0;0.5762;0
1985-08-22 00:00:00;558.0;0;0.5692;0
1985-08-23 00:00:00;558.0;0;0.5921;0
1985-08-24 00:00:00;556.0;0;0.5082;0
1985-08-25 00:00:00;553.0;0;0.4246;0
1985-08-26 00:00:00;554.0;0;0.4745;0
1985-08-27 00:00:00;559.0;0;0.6259;0
1985-08-28 00:00:00;560.0;0;0.6654;0
1985-08-29 00:00:00;559.0;0;0.6413;0
1985-08-30 00:00:00;560.0;0;0.6562;0
1985-08-31 00:00:00;560.0;0;0.6824;0
1985-09-01 00:00:00;557.0;0;0.6095;0
1985-09-02 00:00:00;571.0;0;1.3235;0
1985-09-03 00:00:00;573.0;0;1.3762;0
1985-09-04 00:00:00;568.0;0;1.101;0
1985-09-05 00:00:00;563.0;0;0.8042;0
1985-09-06 00:00:00;567.0;0;1.0496;0
1985-09-07 00:00:00;572.0;0;1.3316;0
1985-09-08 00:00:00;565.0;0;0.9145;0
1985-09-09 00:00:00;562.0;0;0.7425;0
1985-09-10 00:00:00;563.0;0;0.7988;0
1985-09-11 00:00:00;564.0;0;0.8529;0
1985-09-12 00:00:00;564.0;0;0.8155;0
1985-09-13 00:00:00;563.0;0;0.7673;0
1985-09-14 00:00:00;575.0;0;1.6128;0
1985-09-15 00:00:00;571.0;0;1.2016;0
1985-09-16 00:00:00;562.0;0;0.7281;0
1985-09-17 00:00:00;559.0;0;0.6634;0
1985-09-18 00:00:00;552.0;0;0.3865;0
1985-09-19 00:00:00;552.0;0;0.3984;0
1985-09-20 00:00:00;553.0;0;0.4137;0
1985-09-21 00:00:00;552.0;0;0.385;0
1985-09-22 00:00:00;549.0;0;0.3289;0
1985-09-23 00:00:00;551.0;0;0.3738;0
1985-09-24 00:00:00;553.0;0;0.4082;0
1985-09-25 00:00:00;552.0;0;0.3863;0
1985-09-26 00:00:00;550.0;0;0.3375;0
1985-09-27 00:00:00;550.0;0;0.3375;0
1985-09-28 00:00:00;549.0;0;0.3153;0
1985-09-29 00:00:00;548.0;0;0.2926;0
1985-09-30 00:00:00;548.0;0;0.3048;0
1985-10-01 00:00:00;548.0;0;0.2953;0
1985-10-02 00:00:00;549.0;0;0.3114;0
1985-10-03 00:00:00;549.0;0;0.3181;0
1985-10-04 00:00:00;552.0;0;0.3794;0
1985-10-05 00:00:00;553.0;0;0.4121;0
1985-10-06 00:00:00;552.0;0;0.3835;0
1985-10-07 00:00:00;552.0;0;0.4079;0
1985-10-08 00:00:00;560.0;0;0.6412;0
1985-10-09 00:00:00;559.0;0;0.6276;0
1985-10-10 00:00:00;561.0;0;0.7046;0
1985-10-11 00:00:00;562.0;0;0.7455;0
1985-10-12 00:00:00;557.0;0;0.5562;0
1985-10-13 00:00:00;550.0;0;0.3558;0
1985-10-14 00:00:00;550.0;0;0.3529;0
1985-10-15 00:00:00;551.0;0;0.3796;0
1985-10-16 00:00:00;552.0;0;0.4055;0
1985-10-17 00:00:00;552.0;0;0.4166;0
1985-10-18 00:00:00;553.0;0;0.4361;0
1985-10-19 00:00:00;553.0;0;0.4571;0
1985-10-20 00:00:00;554.0;0;0.4779;0
1985-10-21 00:00:00;555.0;0;0.5;0
1985-10-22 00:00:00;555.0;0;0.512;0
1985-10-23 00:00:00;556.0;0;0.5381;0
1985-10-24 00:00:00;556.0;0;0.5551;0
1985-10-25 00:00:00;558.0;0;0.6241;0
1985-10-26 00:00:00;560.0;0;0.6946;0
1985-10-27 00:00:00;560.0;0;0.7303;0
1985-10-28 00:00:00;556.0;0;0.5803;0
1985-10-29 00:00:00;553.0;0;0.4705;0
1985-10-30 00:00:00;561.0;0;0.7721;0
1985-10-31 00:00:00;558.0;0;0.6662;0
1985-11-01 00:00:00;557.0;0;0.613;0
1985-11-02 00:00:00;558.0;0;0.6501;0
1985-11-03 00:00:00;556.0;0;0.576;0
1985-11-04 00:00:00;555.0;0;0.5389;0
1985-11-05 00:00:00;560.0;0;0.7331;0
1985-11-06 00:00:00;564.0;0;0.931;0
1985-11-07 00:00:00;569.0;0;1.2444;0
1985-11-08 00:00:00;565.0;0;0.9841;0
1985-11-09 00:00:00;561.0;0;0.8205;0
1985-11-10 00:00:00;561.0;0;0.8041;0
1985-11-11 00:00:00;562.0;0;0.8711;0
1985-11-12 00:00:00;549.0;0;0.436;0
1985-11-13 00:00:00;549.0;0;0.4182;0
1985-11-14 00:00:00;554.0;0;0.5957;0
1985-11-15 00:00:00;552.0;0;0.529;0
1985-11-16 00:00:00;543.0;0;0.3069;0
1985-11-17 00:00:00;546.0;0;0.3686;0
1985-11-18 00:00:00;555.0;0;0.7322;0
1985-11-19 00:00:00;557.0;0;0.785;0
1985-11-20 00:00:00;549.0;0;0.4704;0
1985-11-21 00:00:00;548.0;0;0.4665;0
1985-11-22 00:00:00;548.0;0;0.4851;0
1985-11-23 00:00:00;547.0;0;0.4675;0
1985-11-24 00:00:00;547.0;0;0.4639;0
1985-11-25 00:00:00;547.0;0;0.4719;0
1985-11-26 00:00:00;547.0;0;0.4877;0
1985-11-27 00:00:00;547.0;0;0.4824;0
1985-11-28 00:00:00;547.0;0;0.4941;0
1985-11-29 00:00:00;546.0;0;0.4764;0
1985-11-30 00:00:00;546.0;0;0.4799;0
1985-12-01 00:00:00;549.0;0;0.5931;0
1985-12-02 00:00:00;566.0;0;1.656;0
1985-12-03 00:00:00;568.0;0;1.862;0
1985-12-04 00:00:00;565.0;0;1.5852;0
1985-12-05 00:00:00;560.0;0;1.1645;0
1985-12-06 00:00:00;562.0;0;1.2969;0
1985-12-07 00:00:00;567.0;0;1.6802;0
1985-12-08 00:00:00;562.0;0;1.2395;0
1985-12-09 00:00:00;561.0;0;1.1979;0
1985-12-10 00:00:00;560.0;0;1.0692;0
1985-12-11 00:00:00;559.0;0;0.9872;0
1985-12-12 00:00:00;557.0;0;0.8984;0
1985-12-13 00:00:00;556.0;0;0.8285;0
1985-12-14 00:00:00;554.0;0;0.7183;0
1985-12-15 00:00:00;554.0;0;0.7096;0
1985-12-16 00:00:00;554.0;0;0.6992;0
1985-12-17 00:00:00;554.0;0;0.7212;0
1985-12-18 00:00:00;554.0;0;0.7002;0
1985-12-19 00:00:00;558.0;0;0.8373;0
1985-12-20 00:00:00;560.0;0;0.9522;0
1985-12-21 00:00:00;560.0;0;0.9656;0
1985-12-22 00:00:00;558.0;0;0.8315;0
1985-12-23 00:00:00;557.0;0;0.7458;0
1985-12-24 00:00:00;554.0;0;0.6232;0
1985-12-25 00:00:00;552.0;0;0.5405;0
1985-12-26 00:00:00;549.0;0;0.4587;0
1985-12-27 00:00:00;549.0;0;0.4482;0
1985-12-28 00:00:00;551.0;0;0.5133;0
1985-12-29 00:00:00;550.0;0;0.4586;0
1985-12-30 00:00:00;549.0;0;0.4282;0
1985-12-31 00:00:00;546.0;0;0.3506;0
1986-01-01 00:00:00;541.0;0;0.2457;0
1986-01-02 00:00:00;549.0;0;0.4134;0
1986-01-03 00:00:00;549.0;0;0.4045;0
1986-01-04 00:00:00;548.0;0;0.3914;0
1986-01-05 00:00:00;541.0;0;0.2626;0
1986-01-06 00:00:00;542.0;0;0.2643;0
1986-01-07 00:00:00;547.0;0;0.3688;0
1986-01-08 00:00:00;547.0;0;0.3702;0
1986-01-09 00:00:00;546.0;0;0.3512;0
1986-01-10 00:00:00;546.0;0;0.3549;0
1986-01-11 00:00:00;549.0;0;0.445;0
1986-01-12 00:00:00;554.0;0;0.5988;0
1986-01-13 00:00:00;561.0;0;0.8864;0
1986-01-14 00:00:00;562.0;0;0.9817;0
1986-01-15 00:00:00;562.0;0;0.9667;0
1986-01-16 00:00:00;558.0;0;0.7639;0
1986-01-17 00:00:00;555.0;0;0.6302;0
1986-01-18 00:00:00;553.0;0;0.5589;0
1986-01-19 00:00:00;560.0;0;0.9448;0
1986-01-20 00:00:00;570.0;0;1.5363;0
1986-01-21 00:00:00;578.0;0;2.4379;0
1986-01-22 00:00:00;567.0;0;1.3903;0
1986-01-23 00:00:00;564.0;0;1.1097;0
1986-01-24 00:00:00;563.0;0;1.0782;0
1986-01-25 00:00:00;560.0;0;0.8975;0
1986-01-26 00:00:00;551.0;0;0.5227;0
1986-01-27 00:00:00;549.0;0;0.462;0
1986-01-28 00:00:00;549.0;0;0.4662;0
1986-01-29 00:00:00;550.0;0;0.4878;0
1986-01-30 00:00:00;565.0;0;1.35;0
1986-01-31 00:00:00;570.0;0;1.9517;0
1986-02-01 00:00:00;563.0;0;1.1315;0
1986-02-02 00:00:00;558.0;0;0.8579;0
1986-02-03 00:00:00;559.0;0;1.0624;0
1986-02-04 00:00:00;545.0;0;0.3804;0
1986-02-05 00:00:00;544.0;0;0.3505;0
1986-02-06 00:00:00;543.0;0;0.3269;0
1986-02-07 00:00:00;543.0;0;0.3297;0
1986-02-08 00:00:00;543.0;0;0.3311;0
1986-02-09 00:00:00;546.0;0;0.4125;0
1986-02-10 00:00:00;547.0;0;0.4345;0
1986-02-11 00:00:00;545.0;0;0.3908;0
1986-02-12 00:00:00;543.0;0;0.3293;0
1986-02-13 00:00:00;541.0;0;0.2904;0
1986-02-14 00:00:00;541.0;0;0.2993;0
1986-02-15 00:00:00;542.0;0;0.3184;0
1986-02-16 00:00:00;543.0;0;0.3499;0
1986-02-17 00:00:00;545.0;0;0.3852;0
1986-02-18 00:00:00;545.0;0;0.3841;0
1986-02-19 00:00:00;547.0;0;0.4703;0
1986-02-20 00:00:00;544.0;0;0.3741;0
1986-02-21 00:00:00;543.0;0;0.3606;0
1986-02-22 00:00:00;543.0;0;0.3537;0
1986-02-23 00:00:00;542.0;0;0.3347;0
1986-02-24 00:00:00;540.0;0;0.2907;0
1986-02-25 00:00:00;540.0;0;0.2911;0
1986-02-26 00:00:00;541.0;0;0.3073;0
1986-02-27 00:00:00;544.0;0;0.3775;0
1986-02-28 00:00:00;543.0;0;0.3651;0
1986-03-01 00:00:00;543.0;0;0.3665;0
1986-03-02 00:00:00;543.0;0;0.3601;0
1986-03-03 00:00:00;542.0;0;0.3461;0
1986-03-04 00:00:00;542.0;0;0.3527;0
1986-03-05 00:00:00;551.0;0;0.6445;0
1986-03-06 00:00:00;551.0;0;0.6274;0
1986-03-07 00:00:00;544.0;0;0.4084;0
1986-03-08 00:00:00;539.0;0;0.2931;0
1986-03-09 00:00:00;542.0;0;0.3612;0
1986-03-10 00:00:00;544.0;0;0.4121;0
1986-03-11 00:00:00;545.0;0;0.4524;0
1986-03-12 00:00:00;545.0;0;0.442;0
1986-03-13 00:00:00;545.0;0;0.4424;0
1986-03-14 00:00:00;545.0;0;0.444;0
1986-03-15 00:00:00;544.0;0;0.4114;0
1986-03-16 00:00:00;542.0;0;0.3713;0
1986-03-17 00:00:00;542.0;0;0.3781;0
1986-03-18 00:00:00;543.0;0;0.3904;0
1986-03-19 00:00:00;543.0;0;0.4055;0
1986-03-20 00:00:00;544.0;0;0.429;0
1986-03-21 00:00:00;545.0;0;0.4699;0
1986-03-22 00:00:00;546.0;0;0.4735;0
1986-03-23 00:00:00;551.0;0;0.6913;0
1986-03-24 00:00:00;552.0;0;0.709;0
1986-03-25 00:00:00;558.0;0;1.0296;0
1986-03-26 00:00:00;556.0;0;0.944;0
1986-03-27 00:00:00;555.0;0;0.9048;0
1986-03-28 00:00:00;556.0;0;0.9311;0
1986-03-29 00:00:00;555.0;0;0.8792;0
1986-03-30 00:00:00;554.0;0;0.8371;0
1986-03-31 00:00:00;554.0;0;0.8209;0
1986-04-01 00:00:00;552.0;0;0.749;0
1986-04-02 00:00:00;549.0;0;0.6032;0
1986-04-03 00:00:00;546.0;0;0.5024;0
1986-04-04 00:00:00;546.0;0;0.5041;0
1986-04-05 00:00:00;546.0;0;0.5058;0
1986-04-06 00:00:00;546.0;0;0.5031;0
1986-04-07 00:00:00;547.0;0;0.5318;0
1986-04-08 00:00:00;546.0;0;0.5164;0
1986-04-09 00:00:00;546.0;0;0.2868;0
1986-04-10 00:00:00;556.0;0;0.8422;0
1986-04-11 00:00:00;546.0;0;0.5292;0
1986-04-12 00:00:00;544.0;0;0.4377;0
1986-04-13 00:00:00;544.0;0;0.4448;0
1986-04-14 00:00:00;545.0;0;0.4634;0
1986-04-15 00:00:00;545.0;0;0.4469;0
1986-04-16 00:00:00;545.0;0;0.4489;0
1986-04-17 00:00:00;545.0;0;0.4532;0
1986-04-18 00:00:00;546.0;0;0.4835;0
1986-04-19 00:00:00;547.0;0;0.5125;0
1986-04-20 00:00:00;547.0;0;0.53;0
1986-04-21 00:00:00;549.0;0;0.5801;0
1986-04-22 00:00:00;548.0;0;0.5396;0
1986-04-23 00:00:00;545.0;0;0.4439;0
1986-04-24 00:00:00;543.0;0;0.3817;0
1986-04-25 00:00:00;544.0;0;0.4044;0
1986-04-26 00:00:00;546.0;0;0.4687;0
1986-04-27 00:00:00;547.0;0;0.4777;0
1986-04-28 00:00:00;546.0;0;0.4521;0
1986-04-29 00:00:00;544.0;0;0.4035;0
1986-04-30 00:00:00;544.0;0;0.403;0
1986-05-01 00:00:00;545.0;0;0.4263;0
1986-05-02 00:00:00;546.0;0;0.437;0
1986-05-03 00:00:00;546.0;0;0.4258;0
1986-05-04 00:00:00;545.0;0;0.4182;0
1986-05-05 00:00:00;544.0;0;0.3929;0
1986-05-06 00:00:00;544.0;0;0.3836;0
1986-05-07 00:00:00;545.0;0;0.408;0
1986-05-08 00:00:00;546.0;0;0.4355;0
1986-05-09 00:00:00;545.0;0;0.4011;0
1986-05-10 00:00:00;547.0;0;0.4608;0
1986-05-11 00:00:00;546.0;0;0.4365;0
1986-05-12 00:00:00;546.0;0;0.4227;0
1986-05-13 00:00:00;546.0;0;0.4176;0
1986-05-14 00:00:00;546.0;0;0.4057;0
1986-05-15 00:00:00;544.0;0;0.3746;0
1986-05-16 00:00:00;544.0;0;0.3736;0
1986-05-17 00:00:00;544.0;0;0.3606;0
1986-05-18 00:00:00;544.0;0;0.3673;0
1986-05-19 00:00:00;543.0;0;0.3383;0
1986-05-20 00:00:00;544.0;0;0.3677;0
1986-05-21 00:00:00;545.0;0;0.383;0
1986-05-22 00:00:00;544.0;0;0.3638;0
1986-05-23 00:00:00;542.0;0;0.2988;0
1986-05-24 00:00:00;543.0;0;0.3389;0
1986-05-25 00:00:00;544.0;0;0.3495;0
1986-05-26 00:00:00;543.0;0;0.3307;0
1986-05-27 00:00:00;544.0;0;0.3388;0
1986-05-28 00:00:00;543.0;0;0.334;0
1986-05-29 00:00:00;544.0;0;0.3392;0
1986-05-30 00:00:00;544.0;0;0.3378;0
1986-05-31 00:00:00;543.0;0;0.3236;0
1986-06-01 00:00:00;544.0;0;0.3438;0
1986-06-02 00:00:00;545.0;0;0.3628;0
1986-06-03 00:00:00;547.0;0;0.4239;0
1986-06-04 00:00:00;547.0;0;0.419;0
1986-06-05 00:00:00;547.0;0;0.3448;0
1986-06-06 00:00:00;553.0;0;0.5474;0
1986-06-07 00:00:00;547.0;0;0.4146;0
1986-06-08 00:00:00;548.0;0;0.431;0
1986-06-09 00:00:00;549.0;0;0.4594;0
1986-06-10 00:00:00;549.0;0;0.4671;0
1986-06-11 00:00:00;548.0;0;0.4323;0
1986-06-12 00:00:00;544.0;0;0.345;0
1986-06-13 00:00:00;546.0;0;0.3797;0
1986-06-14 00:00:00;547.0;0;0.4109;0
1986-06-15 00:00:00;548.0;0;0.4485;0
1986-06-16 00:00:00;549.0;0;0.4641;0
1986-06-17 00:00:00;549.0;0;0.4651;0
1986-06-18 00:00:00;550.0;0;0.4958;0
1986-06-19 00:00:00;550.0;0;0.4808;0
1986-06-20 00:00:00;549.0;0;0.4616;0
1986-06-21 00:00:00;549.0;0;0.4641;0
1986-06-22 00:00:00;549.0;0;0.4596;0
1986-06-23 00:00:00;548.0;0;0.4418;0
1986-06-24 00:00:00;547.0;0;0.3953;0
1986-06-25 00:00:00;546.0;0;0.371;0
1986-06-26 00:00:00;547.0;0;0.408;0
1986-06-27 00:00:00;548.0;0;0.425;0
1986-06-28 00:00:00;549.0;0;0.446;0
1986-06-29 00:00:00;549.0;0;0.4493;0
1986-06-30 00:00:00;550.0;0;0.4745;0
1986-07-01 00:00:00;549.0;0;0.4501;0
1986-07-02 00:00:00;549.0;0;0.4565;0
1986-07-03 00:00:00;549.0;0;0.4543;0
1986-07-04 00:00:00;549.0;0;0.4451;0
1986-07-05 00:00:00;553.0;0;0.5501;0
1986-07-06 00:00:00;551.0;0;0.4892;0
1986-07-07 00:00:00;549.0;0;0.4384;0
1986-07-08 00:00:00;553.0;0;0.5332;0
1986-07-09 00:00:00;548.0;0;0.4074;0
1986-07-10 00:00:00;550.0;0;0.4317;0
1986-07-11 00:00:00;552.0;0;0.4763;0
1986-07-12 00:00:00;548.0;0;0.3459;0
1986-07-13 00:00:00;549.0;0;0.3542;0
1986-07-14 00:00:00;551.0;0;0.3889;0
1986-07-15 00:00:00;554.0;0;0.4368;0
1986-07-16 00:00:00;552.0;0;0.3951;0
1986-07-17 00:00:00;548.0;0;0.2856;0
1986-07-18 00:00:00;549.0;0;0.2894;0
1986-07-19 00:00:00;552.0;0;0.3303;0
1986-07-20 00:00:00;557.0;0;0.4424;0
1986-07-21 00:00:00;557.0;0;0.4181;0
1986-07-22 00:00:00;556.0;0;0.3524;0
1986-07-23 00:00:00;557.0;0;0.3695;0
1986-07-24 00:00:00;555.0;0;0.2902;0